STARLINK-33722, 63571

Orbit data source: Space-Track

STARLINK-33722, 63571 is a payload satellite owned by SpaceX/Seattle (US) in LEO that was launched on Mon, 14 Apr 2025 UTC via an FALCON 9 launch vehicle from the Air Force Eastern Test Range (AFETR). Payload-class satellites include a variety of spacecraft equipped with specific instruments for various scientific and technological missions. These include communications satellites like Starlink; space stations such as the ISS; scientific satellites like the Hubble; Earth observation satellites from companies like Planet Labs, Umbra, and HawkEye 360; GPS; miniature CubeSats for education and research; and military/defense satellites.

Loading next visibility...
Identifier
63571, 2025-076C
Orbit
LEO
Last TLE update
10 hours ago
Origin
Manufacturer
SpaceX/Seattle
Mission
Operational Commercial Communications
Bus & Motor
STARLINK V2MO, Unknown motor
Mass
575 kg wet, ~530 kg dry
Launch date (UTC)
2025-04-14 (3 months ago)
Launch vehicle
FALCON 9
Launch site
Air Force Eastern Test Range (AFETR)
Object type
Payload
Rocket body
Debris
Shape & HBR
Box + 1 Pan, 29 m
Radar Cross Section
41.120 m², Large (>1 m²)

Expand to show TLE details & history

TLE from 10 hours ago
0 STARLINK-33722
1 63571U 25076C   25182.02912683  .00011364  00000-0  42174-3 0  9997
2 63571  42.9986 302.8128 0001125 270.1960  89.8762 15.27587377 13310
Epoch: 2025-07-01T00:41Z
TLE epoch observation values (Epoch: 2025-07-01T00:41:56.558Z)
Latitude
-0.00005°
Longitude
12.99664°
Altitude
482.801 km
Speed
7.626 km/s
True Right ascension
20h 11m 15s
True Declination
0° 00' 00"
Sunlit
Object was in full shadow at epoch
Visualization orbit readout
Latitude
40.44033°
Longitude
76.0682°
Altitude
486.278 km
Speed
7.627 km/s
Apparent Right ascension
04h 49m 54s
Apparent Declination
6° 43' 24"
Sunlit
Object is in daylight
Visualization observer readout
Local Sidereal Time
22:03:59
Azimuth
77.453° E
Elevation
-4.385°
Doppler factor
1
Orbital elements
Apogee altitude
485.745 km
Perigee altitude
484.2 km
Semi-major axis
6,863.109 km
Eccentricity
0.00011
Inclination
42.9986°
RAAN
302.8128°
Arg. of periapsis
270.196°
True anomaly
Unknown
Mean anomaly
89.8762°
Eccentric anomaly
Unknown
Mean motion
3.81735 °/min
Orbital period
94.31 mins
BSTAR
0.00042174
Loading maneuver chart data...
Loading SW <> Apogee altitude chart data...
Loading historical data...
Loading historical data...
Loading historical data...
Loading historical data...
Loading historical data...
Loading historical data...
Loading historical data...

STARLINK-33722 Visibility forecast

Observer location: undefined°, undefined°

Span
Click to sort rows by Start time (UTC) header in descending order
Start Az.
Max El. time (UTC)
Max El. Az.
Max El.
End time (UTC)
End Az.
6 mins2025-07-01 11:54:32.926Z231.24° WSW2025-07-01 11:57:32.926Z153.32° SSE39.859°2025-07-01 12:00:32.926Z78.711° E
5 mins2025-07-01 13:34:32.926Z281.794° WNW2025-07-01 13:36:32.926Z354.823° N39.877°2025-07-01 13:39:32.926Z69.565° E
5 mins2025-07-01 15:13:32.926Z295.34° NW2025-07-01 15:15:32.926Z353.19° N40.847°2025-07-01 15:18:32.926Z88.665° E
5 mins2025-07-01 16:52:32.926Z271.149° WNW2025-07-01 16:54:32.926Z213.155° SW35.836°2025-07-01 16:57:32.926Z136.737° SSE
|